Regional Weather Roundup
Issued by NWS

Home | Current Version | Previous Version | Graphics & Text | Print | Product List | Glossary On
Versions: 1 2 3 4 5 6 7 8 9 10 11 12 13 14 15 16 17 18 19 20 21 22 23 24 25 26 27 28 29 30 31 32 33 34 35 36 37 38 39 40 41 42 43 44 45 46 47 48 49 50
466
ASUS44 KLIX 251901
RWRLA
LOUISIANA WEATHER ROUNDUP
NATIONAL WEATHER SERVICE NEW ORLEANS LA
200 PM CDT FRI JUL 25 2014

NOTE: "FAIR" INDICATES FEW OR NO CLOUDS BELOW 12,000 FEET WITH NO
      SIGNIFICANT WEATHER AND/OR OBSTRUCTIONS TO VISIBILITY.
      SKY/WX - SKY CONDITION AND SIGNIFICANT WEATHER.
      TMP - AIR TEMPERATURE.    DP   - DEWPOINT TEMPERATURE.
      RH  - RELATIVE HUMIDITY.  PRES - PRESSURE.
      HX  - HEAT INDEX.         WCI  - WIND CHILL INDEX.

*  THESE STATIONS ARE NOT NWS OR FAA STATIONS AND ARE NOT UNDER
   NWS QUALITY CONTROL.

LAZ040-048-061>063-065-066-069-252000-
SOUTHEAST LOUISIANA

CITY           SKY/WX    TMP DP  RH WIND       PRES   REMARKS
N.O. AUDUBON   NOT AVBL
N.O. INTL ARPT PTSUNNY   89  73  59 SW6       30.01F HX  97
N.O. LAKEFRONT SUNNY     88  76  67 NW6       30.02F HX  99
N.O. DOWNTOWN* CLOUDY    82  72  69 E5        30.02F
SLIDELL        SUNNY     90  73  57 SW7       30.00F HX  98
BATON ROUGE    MOSUNNY   91  72  53 SW7       30.01F HX  98
BOOTHVILLE     SUNNY     86  74  67 SW12      30.04F
BELLE CHASSE   PTSUNNY   91  71  51 W5        30.00F HX  97
BOGALUSA*      FAIR      91  70  51 CALM      30.01F HX  96
GALLIANO*      NOT AVBL
NEW ROADS*     FAIR      90  73  57 W5        30.01F HX  97
GONZALES*      MOCLDY    90  75  61 W6        30.00F HX 101
HAMMOND*       MOSUNNY   93  70  46 W8        30.02F HX  99
HOUMA*         MOSUNNY   91  73  55 S9        30.02F HX 100
PORT FOURCHON* PTCLDY    86  75  70 SW8G16    30.05F HX  95

$$

LAZ041-044-053-054-252000-
SOUTHWEST LOUISIANA

CITY           SKY/WX    TMP DP  RH WIND       PRES   REMARKS
LAKE CHARLES   PTSUNNY   90  75  61 SW7       30.00F HX 100
LAFAYETTE      CLOUDY    89  73  59 W7        30.01F HX  97
PATTERSON      MOSUNNY   91  75  59 W7        30.06F HX 102
SALT POINT       N/A     90  76  63 VRB7      30.02F HX 101
NEW IBERIA     PTSUNNY   91  75  59 MISG      30.02F HX 101
CHENAULT AIRPK MOSUNNY   90  72  55 CALM      30.01F HX  96

$$

LAZ027-028-252000-
CENTRAL LOUISIANA

CITY           SKY/WX    TMP DP  RH WIND       PRES   REMARKS
FORT POLK      CLOUDY    88  72  58 NW7       30.01F
ALEXANDRIA INT SUNNY     91  72  53 W6        29.98F HX  98
ALEXANDRIA     MOSUNNY   94  71  47 VRB5      30.00F HX 101

$$

LAZ001-002-252000-
NORTHWEST LOUISIANA

CITY           SKY/WX    TMP DP  RH WIND       PRES   REMARKS
SHREVEPORT     PTSUNNY   89  72  56 W8        30.00F HX  96
BARKSDALE AFB  SUNNY     90  72  54 SW8       30.01F HX  97
DTN SHREVEPORT MOSUNNY   89  71  55 VRB6      30.01F HX  95

$$

LAZ014-016-252000-
NORTHEAST LOUISIANA

CITY           SKY/WX    TMP DP  RH WIND       PRES   REMARKS
MONROE         MOSUNNY   90  72  55 VRB3      30.01F HX  97
TALLULAH       PTSUNNY   91  74  57 N7        30.01F HX 100

$$




USA.gov is the U.S. government's official web portal to all federal, state and local government web resources and services.